Regional Weather Roundup
Issued by NWS

Home | Current Version | Previous Version | Graphics & Text | Print | Product List | Glossary On
Versions: 1 2 3 4 5 6 7 8 9 10 11 12 13 14 15 16 17 18 19 20 21 22 23 24 25 26 27 28 29 30 31 32 33 34 35 36 37 38 39 40 41 42 43 44 45 46 47 48 49 50
000
ASUS43 KOAX 160010
RWRNE

WEATHER ROUNDUP FOR NEBRASKA
NATIONAL WEATHER SERVICE OMAHA NE
700 PM CDT TUE AUG 15 2017

NOTES: SATELLITE DATA IS BEING USED TO AUGMENT CLOUD COVER ABOVE
       12000 FEET.
       "FAIR" INDICATES FEW OR NO CLOUDS BELOW 12,000 FEET WITH NO
       SIGNIFICANT WEATHER AND/OR OBSTRUCTIONS TO VISIBILITY.


NEZ001>004-019>022-054>056-160100-
NEBRASKA PANHANDLE

CITY           SKY/WX    TMP DP  RH WIND       PRES   REMARKS
SCOTTSBLUFF    CLOUDY    67  56  67 N17G30    29.89R
6HR MIN TEMP:  67; 6HR MAX TEMP:  84; 6HR PCP: TRACE;

ALLIANCE       CLOUDY    75  63  66 CALM      29.82F
6HR MIN TEMP:  73; 6HR MAX TEMP:  83;

CHADRON        CLOUDY    60  54  80 N9G18     29.83R THUNDER
6HR MIN TEMP:  60; 6HR MAX TEMP:  87; 6HR PCP:  0.20;

GORDON         MOCLDY    79  61  54 N6        29.81F
6HR MIN TEMP:  76; 6HR MAX TEMP:  85;

KIMBALL        TSTM      58  57  95 N29G40    29.95R
SIDNEY         CLOUDY    80  61  52 E8        29.84R
6HR MIN TEMP:  75; 6HR MAX TEMP:  84;

$$

NEZ057>060-069>072-079>082-160100-
SOUTHWEST NEBRASKA

CITY           SKY/WX    TMP DP  RH WIND       PRES   REMARKS
NORTH PLATTE   MOSUNNY   84  66  54 S7        29.72F
6HR MIN TEMP:  73; 6HR MAX TEMP:  88; 6HR PCP: TRACE;

IMPERIAL       MOSUNNY   87  58  37 S16       29.74F
6HR MIN TEMP:  78; 6HR MAX TEMP:  91;

LEXINGTON      MOSUNNY   86  67  52 SE13      29.74F
MCCOOK         SUNNY     90  61  37 S12       29.72F HX  90
6HR MIN TEMP:  83; 6HR MAX TEMP:  93;

OGALLALA       CLOUDY    76  65  69 E6        29.75F
$$

NEZ005>010-023>029-035>040-094-160100-
NORTH CENTRAL NEBRASKA

CITY           SKY/WX    TMP DP  RH WIND       PRES   REMARKS
VALENTINE      MOSUNNY   78  66  66 E9        29.78F
6HR MIN TEMP:  77; 6HR MAX TEMP:  81;

AINSWORTH      CLOUDY    75  68  78 SE9       29.80F
BROKEN BOW     CLOUDY    72  61  68 E7G21     29.77S THUNDER
6HR MIN TEMP:  71; 6HR MAX TEMP:  85; 6HR PCP: TRACE;

O`NEILL        DRIZZLE   64  64  99 SE12      29.81F
ORD            CLOUDY    66  60  81 N8G21     29.82S THUNDER
6HR MIN TEMP:  66; 6HR MAX TEMP:  82; 6HR PCP:  0.01;

THEDFORD       CLOUDY    86  66  51 SE7       29.77F
$$

NEZ041-046>049-061>064-073>077-083>087-160100-
SOUTH CENTRAL NEBRASKA

CITY           SKY/WX    TMP DP  RH WIND       PRES   REMARKS
GRAND ISLAND   CLOUDY    85  71  63 E12       29.77F HX  90
6HR MIN TEMP:  77; 6HR MAX TEMP:  89;

AURORA         CLOUDY    82  72  72 NE13G18   29.78F
HASTINGS       MOSUNNY   86  67  52 SE13      29.77F
6HR MIN TEMP:  82; 6HR MAX TEMP:  93;

HEBRON         SUNNY     88  68  52 SE8       29.77S HX  92
HOLDREGE       SUNNY     83  67  57 SE9       29.75F
KEARNEY        MOSUNNY   85  69  58 E9        29.76F
YORK           MOSUNNY   84  70  61 SE6       29.78F
$$

NEZ011>018-030>034-042>045-160100-
NORTHEAST NEBRASKA

CITY           SKY/WX    TMP DP  RH WIND       PRES   REMARKS
NORFOLK        CLOUDY    67  63  87 SE10      29.81R
6HR MIN TEMP:  65; 6HR MAX TEMP:  81; 6HR PCP:  0.09;

ALBION         CLOUDY    67  65  91 E9        29.82F
BLAIR          CLOUDY    81  72  73 NW9       29.84R
COLUMBUS       TSTM      68  66  94 NE8       29.87R FOG
FREMONT        TSTM      68  65  93 N10G16    29.87R
TEKAMAH        TSTM      67  65  93 CALM      29.86S FOG
6HR MIN TEMP:  66; 6HR MAX TEMP:  85; 6HR PCP:  0.30;

WAYNE          CLOUDY    65  63  92 SE5       29.82S
$$

NEZ050>053-065>068-078-088>093-160100-
SOUTHEAST NEBRASKA

CITY           SKY/WX    TMP DP  RH WIND       PRES   REMARKS
LINCOLN        MOSUNNY   85  71  63 E14       29.78S HX  90
6HR MIN TEMP:  79; 6HR MAX TEMP:  89;

OMAHA EPPLEY   MOSUNNY   83  71  67 E10       29.81R
6HR MIN TEMP:  78; 6HR MAX TEMP:  88;

BEATRICE       SUNNY     88  69  52 SE12      29.78S HX  92
FALLS CITY     MOSUNNY   84  70  62 SE8       29.80S
6HR MIN TEMP:  84; 6HR MAX TEMP:  88;

NEBRASKA CITY  SUNNY     84  71  63 SE12      29.81R
PLATTSMOUTH    SUNNY     82  72  72 E12       29.81R
$$

NEZ044-045-051>053-067-160100-
OMAHA AREA

CITY           SKY/WX    TMP DP  RH WIND       PRES   REMARKS
OMAHA EPPLEY   MOSUNNY   83  71  67 E10       29.81R
6HR MIN TEMP:  78; 6HR MAX TEMP:  88;

BLAIR          CLOUDY    81  72  73 NW9       29.84R
FREMONT        TSTM      68  65  93 N10G16    29.87R
MILLARD        SUNNY     84  73  69 SE9       29.81R HX  90
OFFUTT AFB     SUNNY     83  72  68 E13       29.80S
PLATTSMOUTH    SUNNY     82  72  72 E12       29.81R
WAHOO          CLOUDY    72  65  77 N17G26    29.84R
$$




USA.gov is the U.S. government's official web portal to all federal, state and local government web resources and services.